Find Starlink 30706

NORAD ID: 57947 Int'l Des: 2023-148 Owner: SPXS Country: US Constellation: starlink operational
LEOCIRCULAR

Current View

Loading 3D Globe...

About Starlink 30706

Starlink 30706 (NORAD 57947) is a starlink constellation satellite (v2 mini) launched Sep 25, 2023 by SPXS of US. It operates in LEO, CIRCULAR orbit with a mass of 730.00 kg.

About Starlink 30706

Description loading...

Upcoming Passes

Passes for default location (London). Set your location on the main map for personalized predictions.

Altitude History

Loading altitude history...

Two-Line Element Set

1 57947U 23148N 26176.47161803 .00002441 00000-0 83323-4 0 9996
2 57947 53.1600 242.2707 0001468 100.3559 259.7609 15.34412042154942
Epoch: Jun 25, 2026 • Age: 9 hours

Current Status

Altitude 469.7 km
Velocity 7.63 km/s
Sub-Earth Point -22.37°S, 0.01°W
Launch Date Sep 25, 2023
Age 2.7 years
Type internet

Technical Details

Classification Payload
Mass 730.00 kg
Dry Mass 700.00 kg
Total Mass 730.00 kg
Length 0.30 m
Diameter 4.10 m
Span 29.00 m
Shape Box + pan
Manufacturer SPXS
Bus Type Starlink V2M
Phase Status In Orbit
Owner/State SPXS/US

Most Searched